EW6288 Weather Reports


Display with metric or nautical units.
time (UTC)temp
F
wind
direction
speed
MPH
gust
MPH
rain 1hr
in
rain 24hr
in
rain mn
in
humidity
%
barometer
mb
20260509153935 77 191 0.0 1.0 0.00 0.00 0.00 91 1010.1
20260509153431 77 191 0.0 3.0 0.00 0.00 0.00 91 1010.0
20260509152930 77 191 0.0 3.0 0.00 0.00 0.00 91 1010.0
20260509152431 77 191 0.0 3.0 0.00 0.00 0.00 91 1010.1
20260509152159 77 191 0.0 3.0 0.00 0.00 0.00 91 1010.1
20260509151424 77 191 0.0 0.0 0.00 0.00 0.00 91 1010.1
20260509150922 77 191 0.0 0.0 0.00 0.00 0.00 91 1010.1
20260509150422 77 191 0.0 0.0 0.00 0.00 0.00 91 1010.2
20260509150151 77 191 0.0 0.0 0.00 0.00 0.00 91 1010.0
20260509150036 77 191 0.0 1.0 0.00 0.00 0.00 91 1010.0
20260509144912 77 191 0.0 1.0 0.00 0.00 0.00 91 1010.0
20260509144414 77 191 0.0 1.0 0.00 0.00 0.00 91 1010.0
20260509143914 77 191 0.0 1.0 0.00 0.00 0.00 91 1009.8
20260509143412 77 191 0.0 1.0 0.00 0.00 0.00 91 1009.7
20260509142912 77 194 0.0 1.0 0.00 0.00 0.00 91 1009.7
20260509142645 77 0 0.0 1.0 0.00 0.00 0.00 91 1009.5
20260509141909 77 194 0.0 0.0 0.00 0.00 0.00 91 1009.6
20260509141408 77 194 0.0 2.0 0.00 0.00 0.00 91 1009.4
20260509140904 77 0 0.0 2.0 0.00 0.00 0.00 91 1009.0
20260509140632 77 0 0.0 1.0 0.00 0.00 0.00 91 1009.0
20260509140128 77 0 0.0 1.0 0.00 0.00 0.00 91 1009.2
20260509135400 77 0 0.0 2.0 0.00 0.00 0.00 91 1009.4
20260509134900 77 0 0.0 2.0 0.00 0.00 0.00 91 1009.4
20260509134357 77 0 0.0 2.0 0.00 0.00 0.00 91 1009.7
20260509133857 77 0 0.0 2.0 0.00 0.00 0.00 91 1009.7
20260509133357 77 0 0.0 4.0 0.00 0.00 0.00 91 1009.9
20260509132857 77 0 0.0 4.0 0.00 0.00 0.00 91 1010.2
20260509132355 76 0 0.0 4.0 0.00 0.00 0.00 91 1010.4
20260509131854 76 0 0.0 4.0 0.00 0.00 0.00 91 1010.6
20260509131352 76 116 0.0 2.0 0.00 0.00 0.00 91 1010.6
20260509130854 76 116 0.0 1.0 0.00 0.00 0.00 91 1010.4
20260509130353 76 116 0.0 0.0 0.00 0.00 0.00 91 1010.2
20260509125852 76 116 0.0 1.0 0.00 0.00 0.00 91 1010.3
20260509125353 76 116 0.0 1.0 0.00 0.00 0.00 91 1010.2
20260509124851 76 116 0.0 1.0 0.00 0.00 0.00 91 1010.2
20260509124350 76 116 0.0 1.0 0.00 0.00 0.00 91 1010.1
20260509123846 76 116 0.0 1.0 0.00 0.00 0.00 91 1010.1
20260509123345 76 116 0.0 1.0 0.00 0.00 0.00 91 1010.1
20260509122845 76 116 0.0 0.0 0.00 0.00 0.00 91 1010.1
20260509122342 76 116 0.0 1.0 0.00 0.00 0.00 91 1010.0
20260509121844 76 116 0.0 1.0 0.00 0.00 0.00 91 1010.1
20260509121344 76 116 0.0 1.0 0.00 0.00 0.00 91 1010.2
20260509120840 76 117 0.0 1.0 0.00 0.00 0.00 91 1010.0
20260509120343 76 117 0.0 1.0 0.00 0.00 0.00 91 1009.9
20260509115840 76 117 0.0 0.0 0.00 0.00 0.00 91 1009.8
20260509115341 76 117 0.0 0.0 0.00 0.00 0.00 91 1009.6
20260509114838 76 117 0.0 1.0 0.00 0.00 0.00 91 1009.7
20260509114335 76 117 0.0 1.0 0.00 0.00 0.00 91 1009.8
20260509113834 75 117 0.0 1.0 0.00 0.00 0.00 91 1009.8
20260509113335 75 117 0.0 1.0 0.00 0.00 0.00 91 1009.9
20260509112834 75 117 0.0 1.0 0.00 0.00 0.00 91 1010.1
20260509112334 75 154 0.0 0.0 0.00 0.00 0.00 91 1010.1
20260509111831 75 154 0.0 0.0 0.00 0.00 0.00 91 1010.0
20260509111558 75 154 0.0 0.0 0.00 0.00 0.00 91 1009.7
20260509111059 75 154 0.0 0.0 0.00 0.00 0.00 91 1009.7
20260509110327 75 154 0.0 1.0 0.00 0.00 0.00 91 1009.7
20260509105823 75 154 0.0 1.0 0.00 0.00 0.00 91 1009.5
20260509105323 75 154 0.0 2.0 0.00 0.00 0.00 91 1009.2
20260509104816 75 154 0.0 2.0 0.00 0.00 0.00 91 1009.2
20260509104546 75 154 0.0 0.0 0.00 0.00 0.00 91 1009.1
20260509104430 75 154 0.0 0.0 0.00 0.00 0.00 91 1009.1
20260509103317 75 154 0.0 0.0 0.00 0.00 0.00 91 1009.1
20260509103048 75 154 0.0 0.0 0.00 0.00 0.00 91 1009.4
20260509102312 75 154 0.0 0.0 0.00 0.00 0.00 91 1009.4
20260509101812 75 154 0.0 0.0 0.00 0.00 0.00 91 1009.2
20260509101542 75 154 0.0 0.0 0.00 0.00 0.00 91 1009.1
20260509100811 75 154 0.0 0.0 0.00 0.00 0.00 90 1009.1
20260509100309 75 154 0.0 0.0 0.00 0.00 0.00 90 1009.2
20260509095809 75 154 0.0 0.0 0.00 0.00 0.00 90 1009.0
20260509095307 75 154 0.0 0.0 0.00 0.00 0.00 90 1008.9
20260509094807 75 154 0.0 0.0 0.00 0.00 0.00 90 1009.0
20260509094304 75 154 0.0 0.0 0.00 0.00 0.00 90 1009.1
20260509093806 75 154 0.0 0.0 0.00 0.00 0.00 90 1008.9
20260509093535 75 154 0.0 0.0 0.00 0.00 0.00 90 1008.9
20260509092801 76 154 0.0 0.0 0.00 0.00 0.00 90 1008.9
20260509092300 76 154 0.0 0.0 0.00 0.00 0.00 91 1009.0
20260509091801 76 154 0.0 0.0 0.00 0.00 0.00 91 1009.0
20260509091257 76 154 0.0 0.0 0.00 0.00 0.00 91 1009.0
20260509090759 76 154 0.0 0.0 0.00 0.00 0.00 91 1009.2
20260509090300 76 154 0.0 0.0 0.00 0.00 0.00 91 1009.2
20260509085758 76 154 0.0 0.0 0.00 0.00 0.00 91 1009.2
20260509085258 76 154 0.0 0.0 0.00 0.00 0.00 90 1009.2
20260509084758 76 154 0.0 0.0 0.00 0.00 0.00 90 1009.1
20260509084256 76 154 0.0 0.0 0.00 0.00 0.00 90 1008.9
20260509084025 76 154 0.0 3.0 0.00 0.00 0.00 90 1008.9
20260509083255 76 154 0.0 3.0 0.00 0.00 0.00 90 1008.8
20260509082757 76 154 0.0 3.0 0.00 0.00 0.00 90 1008.9
20260509082255 76 155 0.0 3.0 0.00 0.00 0.00 90 1009.0
20260509081753 76 145 0.0 2.0 0.00 0.00 0.00 90 1009.1
20260509081252 76 145 0.0 2.0 0.00 0.00 0.00 90 1009.2
20260509080747 76 145 0.0 7.0 0.00 0.00 0.00 90 1009.1
20260509080245 76 145 0.0 7.0 0.00 0.00 0.00 90 1009.0
20260509075741 76 145 1.0 7.0 0.00 0.00 0.00 90 1008.9
20260509075238 76 202 1.0 7.0 0.00 0.00 0.00 90 1008.9
20260509074734 76 138 1.0 5.0 0.00 0.00 0.00 90 1008.8
20260509074233 76 150 1.0 3.0 0.00 0.00 0.00 90 1008.9
20260509073732 76 150 0.0 2.0 0.00 0.00 0.00 90 1009.1
20260509073500 76 155 0.0 2.0 0.00 0.00 0.00 90 1009.4
20260509072728 76 155 0.0 2.0 0.00 0.00 0.00 90 1009.4
20260509072457 76 155 0.0 2.0 0.00 0.00 0.00 90 1009.4
20260509071724 76 155 0.0 2.0 0.00 0.00 0.00 90 1009.5
20260509071221 76 156 0.0 2.0 0.00 0.00 0.00 90 1009.6
20260509070715 76 156 0.0 2.0 0.00 0.00 0.00 90 1009.8
20260509070215 76 156 0.0 2.0 0.00 0.00 0.00 90 1009.7
20260509065715 76 156 0.0 1.0 0.00 0.00 0.00 90 1009.7
20260509065215 76 156 0.0 1.0 0.00 0.00 0.00 90 1009.7
20260509064713 76 156 0.0 1.0 0.00 0.00 0.00 90 1009.7
20260509064206 76 156 0.0 1.0 0.00 0.00 0.00 90 1009.6
20260509063705 76 156 0.0 2.0 0.00 0.00 0.00 90 1009.5
20260509063205 76 156 0.0 2.0 0.00 0.00 0.00 90 1009.5
20260509062704 76 156 0.0 5.0 0.00 0.00 0.00 90 1009.6
20260509062202 76 156 0.0 5.0 0.00 0.00 0.00 90 1009.7
20260509061702 76 156 1.0 5.0 0.00 0.00 0.00 90 1009.6
20260509061201 76 156 1.0 5.0 0.00 0.00 0.00 90 1009.6
20260509060659 76 165 0.0 4.0 0.00 0.00 0.00 90 1009.7
20260509060200 76 169 0.0 2.0 0.00 0.00 0.00 90 1009.8
20260509055932 76 169 0.0 2.0 0.00 0.00 0.00 90 1009.9
20260509055159 76 169 0.0 2.0 0.00 0.00 0.00 90 1009.9
20260509054658 76 169 0.0 2.0 0.00 0.00 0.00 90 1009.9
20260509054157 76 169 0.0 2.0 0.00 0.00 0.00 90 1009.8
20260509053654 76 169 0.0 2.0 0.00 0.00 0.00 90 1009.8
20260509053154 76 169 0.0 3.0 0.00 0.00 0.00 90 1009.9
20260509052925 76 169 0.0 3.0 0.00 0.00 0.00 90 1010.0
20260509052811 76 169 0.0 4.0 0.00 0.00 0.00 90 1010.0
20260509051649 76 169 0.0 4.0 0.00 0.00 0.00 90 1009.9
20260509051145 75 169 0.0 3.0 0.00 0.00 0.00 90 1009.9
20260509050651 75 169 0.0 4.0 0.00 0.00 0.00 90 1009.9
20260509050143 75 169 1.0 4.0 0.00 0.00 0.00 90 1009.9
20260509045640 75 181 1.0 3.0 0.00 0.00 0.00 90 1009.9
20260509045136 75 142 0.0 3.0 0.00 0.00 0.00 90 1010.0
20260509044638 75 142 0.0 3.0 0.00 0.00 0.00 90 1010.2
20260509044133 75 142 0.0 2.0 0.00 0.00 0.00 90 1010.1
20260509043633 75 142 0.0 2.0 0.00 0.00 0.00 90 1010.1
20260509043629 75 142 0.0 2.0 0.00 0.00 0.00 90 1010.1
20260509042625 75 142 0.0 3.0 0.00 0.00 0.00 90 1010.0
20260509042123 75 142 0.0 3.0 0.00 0.00 0.00 90 1010.1
20260509041623 75 142 0.0 3.0 0.00 0.00 0.00 90 1010.1
20260509041123 75 142 1.0 3.0 0.00 0.00 0.00 90 1010.1
20260509040853 75 157 1.0 3.0 0.00 0.00 0.00 90 1009.9
20260509040119 75 157 1.0 2.0 0.00 0.00 0.00 90 1009.8
20260509035624 75 158 0.0 2.0 0.00 0.00 0.00 90 1009.8
20260509035619 75 158 0.0 2.0 0.00 0.00 0.00 90 1009.8
20260509034616 75 158 0.0 2.0 0.00 0.00 0.00 90 1009.6
20260509034116 75 158 0.0 1.0 0.00 0.00 0.00 90 1009.7
20260509033849 75 158 0.0 1.0 0.00 0.00 0.00 90 1009.5
20260509033349 75 158 0.0 1.0 0.00 0.00 0.00 90 1009.6
20260509032618 75 158 0.0 1.0 0.00 0.00 0.00 90 1009.5
20260509032118 75 158 0.0 2.0 0.00 0.00 0.00 90 1009.6
20260509031613 75 158 0.0 2.0 0.00 0.00 0.00 90 1009.7
20260509031112 75 158 0.0 2.0 0.00 0.00 0.00 90 1009.6
20260509030614 75 158 0.0 3.0 0.00 0.00 0.00 90 1009.5
20260509030111 75 158 0.0 3.0 0.00 0.00 0.00 90 1009.6
20260509025840 75 199 0.0 2.0 0.00 0.00 0.00 90 1009.7
20260509025114 75 199 0.0 2.0 0.00 0.00 0.00 90 1009.5
20260509024608 75 151 0.0 2.0 0.00 0.00 0.00 90 1009.5
20260509024109 75 136 0.0 2.0 0.00 0.00 0.00 90 1009.1
20260509023610 75 136 0.0 2.0 0.00 0.00 0.00 90 1009.2
20260509023110 75 136 0.0 2.0 0.00 0.00 0.00 90 1009.4
20260509022553 75 138 0.0 1.0 0.00 0.00 0.00 90 1009.4
20260509022052 74 138 0.0 1.0 0.00 0.00 0.00 90 1009.1
20260509021551 74 138 0.0 2.0 0.00 0.00 0.00 90 1008.8
20260509021050 74 138 1.0 2.0 0.00 0.00 0.00 90 1008.9
20260509020547 74 138 0.0 3.0 0.00 0.00 0.00 90 1008.8
20260509020049 74 138 0.0 3.0 0.00 0.00 0.00 90 1008.9
20260509015549 74 120 0.0 3.0 0.00 0.00 0.00 90 1008.8
20260509015048 74 116 0.0 3.0 0.00 0.00 0.00 90 1008.9
20260509014552 74 116 0.0 3.0 0.00 0.00 0.00 90 1008.9
20260509014048 74 72 0.0 2.0 0.00 0.00 0.00 90 1008.8
20260509013547 74 72 0.0 2.0 0.00 0.00 0.00 90 1008.5
20260509013048 74 72 0.0 2.0 0.00 0.00 0.00 90 1008.6
20260509012545 74 65 1.0 2.0 0.00 0.00 0.00 90 1008.5
20260509012047 74 65 0.0 2.0 0.00 0.00 0.00 90 1008.5
20260509011545 74 59 0.0 2.0 0.00 0.00 0.00 90 1008.7
20260509011044 74 59 0.0 2.0 0.00 0.00 0.00 90 1008.6
20260509010545 75 39 0.0 2.0 0.00 0.00 0.00 90 1008.7
20260509010043 74 32 0.0 1.0 0.00 0.00 0.00 90 1008.7
20260509005543 75 32 0.0 1.0 0.00 0.00 0.00 90 1008.7
20260509005046 75 32 0.0 1.0 0.00 0.00 0.00 90 1008.6
20260509004546 75 32 0.0 1.0 0.00 0.00 0.00 90 1008.7
20260509004044 75 32 0.0 1.0 0.00 0.00 0.00 90 1008.6
20260509003544 75 32 0.0 2.0 0.00 0.00 0.00 90 1008.6
20260509003042 75 32 0.0 2.0 0.00 0.00 0.00 90 1008.6
20260509002543 75 32 0.0 2.0 0.00 0.00 0.00 90 1008.6
20260509002316 75 32 0.0 2.0 0.00 0.00 0.00 90 1008.6
20260509001811 75 32 0.0 2.0 0.00 0.00 0.00 90 1008.7
20260509001041 74 32 0.0 2.0 0.00 0.00 0.00 90 1008.6
20260509000539 74 152 0.0 2.0 0.00 0.00 0.00 90 1008.5
20260509000040 74 152 0.0 2.0 0.00 0.00 0.00 90 1008.5
20260508235539 75 152 0.0 2.0 0.00 0.00 0.00 90 1008.5
20260508235306 74 152 0.0 2.0 0.00 0.00 0.00 90 1008.5
20260508234534 74 152 0.0 2.0 0.00 0.00 0.00 90 1008.7
20260508234030 74 152 0.0 2.0 0.00 0.00 0.00 90 1008.7
20260508233529 74 152 0.0 1.0 0.00 0.00 0.00 90 1008.7
20260508233029 74 152 0.0 1.0 0.00 0.00 0.00 90 1008.9
20260508232529 74 152 0.0 1.0 0.00 0.00 0.00 90 1008.9
20260508232300 74 152 0.0 0.0 0.00 0.00 0.00 90 1009.0
20260508231526 74 152 0.0 1.0 0.00 0.00 0.00 90 1009.0
20260508231025 74 152 0.0 1.0 0.00 0.00 0.00 90 1008.8
20260508230754 74 152 0.0 1.0 0.00 0.00 0.00 90 1008.8
20260508230024 74 152 0.0 1.0 0.00 0.00 0.00 90 1008.9
20260508225753 74 152 0.0 0.0 0.00 0.00 0.00 90 1008.8
20260508225022 74 152 0.0 1.0 0.00 0.00 0.00 90 1008.7
20260508224517 74 152 0.0 1.0 0.00 0.00 0.00 90 1008.7
20260508224018 74 152 0.0 1.0 0.00 0.00 0.00 90 1008.7
20260508223518 74 152 0.0 1.0 0.00 0.00 0.00 90 1008.8
20260508223015 74 152 0.0 1.0 0.00 0.00 0.00 90 1008.8
20260508222516 74 152 0.0 1.0 0.00 0.00 0.00 90 1008.8
20260508222015 74 152 0.0 2.0 0.00 0.00 0.00 90 1008.9
20260508221516 74 152 0.0 2.0 0.00 0.00 0.00 90 1009.0
20260508221016 74 152 0.0 2.0 0.00 0.00 0.00 90 1009.0
20260508220511 74 152 0.0 2.0 0.00 0.00 0.00 90 1009.0
20260508220011 74 152 0.0 2.0 0.00 0.00 0.00 90 1008.9
20260508215512 74 152 0.0 2.0 0.00 0.00 0.00 90 1008.8
20260508215005 74 152 0.0 2.0 0.00 0.00 0.00 90 1008.9
20260508214735 74 146 0.0 2.0 0.00 0.00 0.00 90 1009.0
20260508214002 74 146 0.0 3.0 0.00 0.00 0.00 90 1009.0
20260508213500 74 146 0.0 3.0 0.00 0.00 0.00 90 1009.2
20260508213001 73 0 1.0 3.0 0.00 0.00 0.00 90 1009.4
20260508212500 73 144 0.0 3.0 0.00 0.00 0.00 90 1009.4
20260508212000 73 148 0.0 2.0 0.00 0.00 0.00 90 1009.4
20260508211500 73 148 0.0 2.0 0.00 0.00 0.00 90 1009.4
20260508211000 73 148 0.0 2.0 0.00 0.00 0.00 90 1009.4
20260508210456 73 148 0.0 2.0 0.00 0.00 0.00 90 1009.5
20260508205955 73 147 0.0 2.0 0.00 0.00 0.00 90 1009.5
20260508205453 73 147 0.0 2.0 0.00 0.00 0.00 90 1009.4
20260508204950 73 147 0.0 2.0 0.00 0.00 0.00 90 1009.5
20260508204449 72 147 0.0 1.0 0.00 0.00 0.00 89 1009.6
20260508203952 72 147 0.0 2.0 0.00 0.00 0.00 89 1009.6
20260508203724 72 147 0.0 2.0 0.00 0.00 0.00 89 1009.6
20260508203448 72 147 0.0 2.0 0.00 0.00 0.00 89 1009.7
20260508202718 72 147 1.0 3.0 0.00 0.00 0.00 90 1009.8
20260508201951 72 147 0.0 3.0 0.00 0.00 0.00 90 1009.6
20260508201446 72 79 0.0 2.0 0.00 0.00 0.00 89 1009.8
20260508200945 72 0 0.0 2.0 0.00 0.00 0.00 89 1010.0
20260508200444 72 79 0.0 2.0 0.00 0.00 0.00 89 1010.1
20260508195943 72 38 0.0 1.0 0.00 0.00 0.00 89 1010.2
20260508195442 72 0 0.0 2.0 0.00 0.00 0.00 89 1010.1
20260508194943 71 0 0.0 2.0 0.00 0.00 0.00 89 1010.2
20260508194443 71 0 0.0 2.0 0.00 0.00 0.00 89 1010.3
20260508193939 71 0 0.0 2.0 0.00 0.00 0.00 89 1010.5
20260508193442 71 0 0.0 2.0 0.00 0.00 0.00 89 1010.6
20260508192933 71 0 0.0 1.0 0.00 0.00 0.00 89 1010.7
20260508192434 71 0 0.0 2.0 0.00 0.00 0.00 89 1010.8
20260508191933 71 0 0.0 2.0 0.00 0.00 0.00 89 1010.8
20260508191436 71 0 0.0 1.0 0.00 0.00 0.00 89 1010.8
20260508190933 71 0 0.0 2.0 0.00 0.00 0.00 89 1010.7
20260508190433 71 0 0.0 2.0 0.00 0.00 0.00 89 1010.8
20260508185935 71 0 0.0 3.0 0.00 0.00 0.00 89 1010.7
20260508185434 71 0 0.0 3.0 0.00 0.00 0.00 89 1010.7
20260508184934 71 0 0.0 2.0 0.00 0.00 0.00 89 1010.7
20260508184701 70 0 0.0 2.0 0.00 0.00 0.00 89 1010.7
20260508183933 70 0 0.0 2.0 0.00 0.00 0.00 89 1010.8
20260508183434 70 0 0.0 2.0 0.00 0.00 0.00 89 1010.7
20260508182931 70 0 0.0 2.0 0.00 0.00 0.00 89 1010.7
20260508182431 70 0 0.0 2.0 0.00 0.00 0.00 89 1010.9
20260508181931 70 0 1.0 2.0 0.00 0.00 0.00 88 1011.0
20260508181429 70 0 0.0 3.0 0.00 0.00 0.00 88 1011.0
20260508180932 70 355 0.0 3.0 0.00 0.00 0.00 88 1011.2
20260508180435 70 355 1.0 5.0 0.00 0.00 0.00 88 1011.3
20260508180429 70 355 1.0 5.0 0.00 0.00 0.00 88 1011.4
20260508175427 70 329 1.0 5.0 0.00 0.00 0.00 88 1011.3
20260508174927 70 165 1.0 5.0 0.00 0.00 0.00 88 1011.2
20260508174425 70 165 1.0 5.0 0.00 0.00 0.00 88 1011.3
20260508173918 70 127 0.0 3.0 0.00 0.00 0.00 88 1011.5
20260508173652 70 127 0.0 3.0 0.00 0.00 0.00 88 1011.5
20260508172920 70 127 0.0 3.0 0.00 0.00 0.00 88 1011.6
20260508172419 70 128 0.0 3.0 0.00 0.00 0.00 88 1011.6
20260508171919 69 146 0.0 3.0 0.00 0.00 0.00 88 1011.8
20260508171652 69 145 0.0 3.0 0.00 0.00 0.00 88 1011.7
20260508170919 69 145 0.0 3.0 0.00 0.00 0.00 87 1011.9
20260508170419 69 160 0.0 2.0 0.00 0.00 0.00 87 1011.9
20260508165917 69 158 0.0 2.0 0.00 0.00 0.00 87 1011.9
20260508165417 69 157 0.0 3.0 0.00 0.00 0.00 87 1011.9
20260508164919 69 157 0.0 3.0 0.00 0.00 0.00 87 1011.9
20260508164417 69 153 0.0 3.0 0.00 0.00 0.00 87 1012.0
20260508163916 69 154 1.0 3.0 0.00 0.00 0.00 87 1012.1
20260508163649 69 97 0.0 2.0 0.00 0.00 0.00 87 1012.2
20260508162915 69 19 0.0 6.0 0.00 0.00 0.00 87 1012.2
20260508162417 69 17 1.0 6.0 0.00 0.00 0.00 87 1012.2
20260508161911 69 15 1.0 6.0 0.00 0.00 0.00 87 1012.3
20260508161412 69 24 1.0 6.0 0.00 0.00 0.00 87 1012.4
20260508161143 69 76 1.0 3.0 0.00 0.00 0.00 87 1012.7
20260508160411 69 320 1.0 4.0 0.00 0.00 0.00 86 1012.7
20260508160139 69 320 1.0 4.0 0.00 0.00 0.00 86 1012.8
20260508155410 69 351 1.0 5.0 0.00 0.00 0.00 86 1012.9
20260508154912 69 355 1.0 5.0 0.00 0.00 0.00 86 1012.9
20260508154640 69 5 1.0 5.0 0.00 0.00 0.00 86 1013.1
20260508154140 69 5 1.0 5.0 0.00 0.00 0.00 86 1012.9